QB50P1 (40025 NORAD) Tracking and Keplerian Element Data

This shows tracking and keplerian element data for the satellite.

Feedback or suggestion? Click here.




ElementValue
Catalog40025
NameQB50P1
Epoch Orbit62586
Epoch Day353.95347395
Epoch Year2025
RAAN348.007
Inclination98.0962
Eccentricity0.0010975
Argument of Perigee113.476
Mean Anonmoly246.7625
Mean Motion15.14576749
Decay Rate6.335E-05
L11 40025U 14033R 25353.95347395 .00006335 00000+0 34683-3 0 9998
L22 40025 98.0962 348.0070 0010975 113.4760 246.7625 15.14576749625861



Live tracking and technical data element details for QB50P1 (NORAD 40025). QB50P1 can be tracked NOW for your location showing map with azimuth and elevation plus other details from your city location.







IsCatalogInMostPopularTable: catalog: 40025, numindb: 465
Update: records affected: 1



GetName: 40025 QB50P1

Hit Count: updated at: Sat, 07 Mar 2026 05:42:56 GMT